Temp
11 8 9 10 9 10 10 9 8 7 9 9 7 6 7 8 7 6 7 7 7 8 7 6 6 6 6 6 6 6 6 7 6 6 6 6 6 7 6 7 7 7 7 7
10 10 11 10 10 10 9 9 8 8 9 9 6 6 6 7 7 7 7 7 8 7 7 7 6 6 6 6 6 6 6 6 6 6 6 6 5 5 5 5 5 5 6 6
11 12 11 11 11 9 9 9 9 9 7 6 6 7 9 8 7 7 8 8 8 8 7 7 6 6 6 6 5 5 5 5 5 5 5 5 4 4 4 4 4 4 5 4
11 11 11 11 11 9 9 9 9 7 7 8 7 8 8 8 7 6 8 8 9 8 8 7 6 6 6 5 5 5 4 4 4 4 4 4 4 4 3 3 4 4 3 4
12 11 11 11 12 10 9 8 7 8 7 6 8 7 7 7 9 7 8 9 10 10 9 8 7 6 5 5 5 4 4 4 4 4 4 4 4 4 3 2 2 2 3 3
10 10 10 11 10 9 8 8 7 5 5 6 8 6 8 7 8 10 9 10 11 10 9 9 7 6 6 5 5 4 4 4 4 4 4 3 3 3 2 2 2 2 2 2
8 10 10 10 10 9 7 7 7 8 6 8 6 7 7 9 8 9 9 9 10 10 10 9 8 7 6 6 5 5 4 3 3 3 2 2 2 2 2 2 1 1 1 1
8 10 11 10 10 10 8 7 7 10 7 7 5 7 8 7 8 8 9 8 9 10 9 8 8 7 6 5 4 3 3 3 2 2 2 2 1 1 1 1 1 1 1 0
9 10 10 9 9 9 8 8 7 7 5 4 5 6 7 7 6 7 8 9 9 9 9 8 7 7 6 5 4 3 2 2 1 1 1 0 -0 -1 -1 -1 -1 -1 -1 -1
9 8 9 9 9 8 8 6 7 5 8 7 6 5 8 9 9 7 7 8 8 8 8 7 7 7 6 5 4 3 2 2 2 0 -0 -1 -1 -2 -2 -2 -2 -2 -2 -2
7 7 9 8 7 7 6 6 6 5 4 6 5 6 6 7 7 7 7 7 7 7 6 6 6 7 6 5 3 2 2 1 0 -1 -1 -2 -2 -2 -2 -3 -4 -4 -4 -3
7 5 5 7 7 7 7 7 6 6 7 4 5 8 7 5 6 7 6 7 6 5 5 5 6 7 7 6 3 1 -0 -1 -1 -2 -3 -3 -3 -3 -4 -4 -5 -4 -5 -5
6 6 6 8 7 6 6 5 6 7 7 6 7 8 5 4 5 6 6 5 5 5 5 5 5 5 4 3 1 -0 -1 -2 -3 -3 -4 -4 -4 -5 -5 -5 -5 -6 -7 -7
9 5 7 9 10 8 6 6 6 8 6 8 8 9 7 5 5 4 4 3 3 3 3 4 3 3 3 2 -0 -2 -2 -3 -4 -4 -5 -5 -5 -6 -6 -7 -7 -7 -8 -8
7 5 5 7 8 8 7 7 8 7 8 7 9 9 10 8 6 4 3 3 2 2 2 1 2 2 2 1 -1 -3 -4 -4 -5 -5 -5 -6 -6 -6 -7 -8 -8 -8 -8 -8
5 6 4 6 5 6 6 7 7 7 7 8 8 8 10 3 3 2 2 1 1 -0 -1 -0 -0 -1 -1 -1 -3 -4 -4 -5 -6 -6 -6 -6 -7 -8 -8 -9 -9 -9 -9 -9
5 5 4 7 6 5 6 7 7 6 5 7 6 8 5 1 2 1 1 1 -0 -1 -1 -2 -2 -2 -2 -3 -4 -5 -5 -6 -6 -7 -7 -7 -8 -9 -9 -9 -9 -9 -10 -10
6 5 4 6 5 8 10 8 7 6 7 5 4 3 2 2 1 1 -0 -1 -2 -3 -3 -4 -4 -5 -5 -5 -6 -6 -7 -7 -7 -7 -8 -9 -9 -10 -10 -10 -10 -10 -10 -11
6 8 5 6 7 8 9 6 6 6 7 4 5 1 0 -0 0 -1 -1 -2 -3 -3 -4 -5 -6 -6 -7 -7 -7 -7 -7 -8 -8 -9 -9 -10 -10 -10 -10 -10 -10 -10 -11 -11
3 4 5 5 6 7 7 5 5 5 5 1 2 1 0 -1 1 -0 -2 -3 -4 -5 -6 -7 -7 -8 -8 -8 -8 -8 -9 -9 -9 -10 -10 -10 -11 -11 -11 -11 -11 -11 -11 -11
3 3 5 5 6 6 4 4 4 5 5 1 1 -0 -1 -1 -2 -3 -4 -5 -5 -6 -7 -7 -8 -8 -9 -9 -9 -10 -10 -10 -10 -10 -11 -11 -11 -11 -11 -11 -12 -12 -12 -12
6 5 4 4 6 6 3 3 4 0 -1 -1 -2 -3 -3 -4 -4 -5 -5 -6 -6 -7 -7 -8 -9 -9 -9 -10 -10 -10 -11 -11 -11 -11 -11 -11 -11 -11 -12 -12 -12 -12 -12 -12
5 6 6 5 6 1 -2 -2 -3 -3 -3 -5 -4 -5 -5 -6 -6 -6 -7 -7 -7 -8 -8 -9 -10 -10 -10 -11 -11 -11 -11 -11 -11 -11 -11 -12 -12 -12 -12 -12 -12 -13 -13 -13
5 5 4 4 -1 -3 -5 -5 -5 -5 -5 -6 -6 -6 -6 -7 -7 -7 -8 -8 -9 -9 -10 -10 -10 -11 -11 -11 -11 -12 -12 -12 -12 -12 -12 -12 -12 -13 -13 -13 -13 -13 -13 -13
-3 -2 -3 2 -4 -4 -6 -7 -7 -7 -7 -7 -7 -8 -8 -8 -8 -8 -9 -9 -10 -10 -11 -11 -11 -11 -11 -12 -12 -12 -12 -12 -12 -12 -13 -13 -13 -13 -13 -13 -13 -13 -13 -13
-7 -7 -6 -4 -8 -8 -7 -8 -8 -8 -9 -9 -9 -9 -9 -9 -10 -10 -10 -11 -11 -11 -12 -12 -12 -12 -12 -12 -12 -12 -12 -13 -13 -13 -13 -13 -13 -13 -13 -13 -13 -14 -14 -15
Height
1536 1544 1550 1546 1546 1546 1546 1548 1549 1540 1533 1533 1530 1527 1517 1514 1513 1514 1515 1515 1516 1517 1520 1520 1519 1517 1518 1517 1515 1513 1511 1508 1507 1505 1503 1502 1500 1499 1498 1497 1497 1496 1494 1492
1542 1547 1544 1543 1544 1544 1545 1545 1545 1538 1533 1535 1529 1523 1514 1512 1511 1509 1510 1511 1512 1514 1517 1517 1517 1518 1516 1516 1514 1513 1511 1509 1507 1504 1502 1500 1499 1498 1497 1496 1495 1494 1493 1492
1544 1543 1541 1541 1542 1544 1543 1543 1541 1541 1536 1532 1532 1521 1511 1510 1509 1508 1507 1508 1510 1511 1513 1513 1514 1513 1513 1513 1513 1512 1510 1509 1507 1504 1502 1501 1499 1498 1498 1496 1495 1493 1492 1491
1542 1540 1541 1541 1541 1544 1546 1538 1539 1541 1540 1540 1533 1531 1513 1509 1509 1508 1507 1507 1509 1510 1511 1510 1510 1511 1512 1513 1512 1511 1509 1508 1507 1505 1504 1502 1501 1500 1498 1496 1494 1493 1492 1490
1542 1541 1541 1541 1540 1541 1541 1536 1538 1537 1540 1543 1533 1540 1514 1512 1507 1505 1503 1504 1505 1507 1507 1508 1509 1509 1509 1510 1510 1509 1508 1507 1506 1505 1504 1502 1500 1499 1498 1497 1496 1494 1492 1490
1542 1541 1541 1540 1539 1539 1538 1537 1538 1544 1545 1547 1533 1540 1517 1512 1504 1501 1501 1501 1502 1504 1506 1506 1508 1509 1510 1510 1509 1509 1507 1506 1505 1504 1502 1501 1500 1499 1498 1496 1495 1493 1491 1489
1546 1541 1540 1540 1541 1539 1541 1543 1548 1545 1549 1537 1537 1537 1512 1500 1499 1497 1499 1500 1500 1501 1503 1504 1505 1505 1505 1503 1504 1504 1505 1505 1503 1503 1502 1501 1500 1499 1497 1496 1494 1493 1491 1488
1559 1551 1540 1540 1540 1542 1545 1548 1556 1548 1551 1543 1540 1530 1506 1498 1497 1499 1500 1500 1499 1500 1501 1502 1503 1503 1501 1501 1503 1504 1502 1502 1501 1500 1500 1498 1497 1496 1495 1495 1493 1490 1490 1489
1557 1548 1539 1540 1541 1543 1547 1549 1549 1551 1556 1560 1536 1520 1500 1495 1495 1496 1498 1497 1499 1500 1499 1499 1501 1502 1503 1502 1499 1497 1498 1497 1497 1497 1497 1498 1498 1497 1496 1493 1492 1490 1490 1488
1551 1557 1541 1541 1542 1545 1545 1548 1551 1559 1548 1544 1530 1527 1505 1493 1492 1493 1495 1496 1498 1499 1497 1497 1495 1495 1495 1496 1494 1493 1492 1492 1493 1493 1493 1493 1493 1492 1492 1491 1491 1489 1488 1487
1550 1556 1546 1542 1542 1543 1549 1550 1552 1555 1557 1548 1547 1517 1494 1492 1487 1488 1490 1493 1495 1496 1496 1494 1492 1491 1490 1491 1491 1490 1488 1490 1490 1490 1490 1491 1491 1490 1489 1489 1486 1485 1484 1482
1548 1557 1558 1542 1536 1537 1538 1540 1544 1548 1542 1550 1543 1498 1486 1489 1488 1487 1489 1491 1493 1494 1494 1493 1490 1487 1486 1485 1485 1487 1488 1488 1489 1488 1488 1488 1488 1488 1487 1486 1484 1481 1480 1479
1545 1552 1553 1537 1538 1537 1536 1534 1533 1533 1533 1526 1524 1495 1487 1486 1488 1488 1488 1489 1489 1490 1490 1489 1488 1486 1484 1484 1483 1484 1485 1486 1485 1486 1486 1486 1485 1484 1483 1482 1480 1479 1477 1474
1539 1546 1540 1533 1523 1524 1528 1525 1525 1522 1529 1509 1503 1480 1484 1489 1489 1487 1486 1487 1487 1486 1486 1485 1484 1483 1481 1479 1479 1481 1482 1482 1482 1482 1482 1483 1482 1481 1479 1478 1475 1474 1473 1472
1540 1543 1538 1522 1519 1518 1512 1513 1513 1515 1498 1507 1478 1477 1462 1477 1477 1480 1484 1485 1484 1483 1483 1482 1480 1479 1477 1475 1475 1477 1478 1479 1480 1479 1478 1479 1478 1476 1474 1474 1472 1471 1470 1469
1535 1532 1532 1513 1518 1514 1508 1503 1498 1495 1488 1489 1478 1470 1463 1471 1473 1476 1479 1481 1480 1481 1480 1478 1476 1475 1473 1472 1473 1474 1476 1478 1477 1477 1476 1475 1473 1472 1471 1471 1469 1468 1468 1467
1532 1534 1533 1511 1511 1514 1500 1480 1479 1480 1475 1472 1476 1457 1464 1468 1471 1474 1477 1479 1480 1478 1478 1476 1474 1472 1471 1470 1471 1472 1475 1476 1476 1475 1472 1471 1470 1469 1468 1468 1466 1465 1465 1464
1518 1522 1526 1511 1513 1500 1465 1468 1468 1469 1462 1466 1465 1464 1466 1468 1470 1471 1474 1477 1477 1477 1476 1474 1473 1472 1472 1470 1470 1472 1472 1473 1473 1471 1469 1468 1467 1466 1465 1465 1463 1463 1462 1461
1510 1511 1514 1505 1495 1480 1463 1468 1470 1470 1461 1461 1459 1463 1467 1470 1469 1470 1472 1474 1475 1474 1472 1472 1470 1470 1470 1469 1470 1470 1470 1470 1469 1468 1466 1465 1464 1464 1463 1462 1460 1460 1459 1458
1507 1509 1511 1503 1496 1482 1469 1473 1472 1472 1465 1464 1464 1466 1468 1468 1469 1471 1473 1474 1472 1472 1471 1469 1468 1469 1468 1468 1468 1468 1466 1465 1465 1466 1464 1463 1462 1461 1459 1459 1457 1456 1456 1454
1508 1509 1503 1496 1485 1476 1473 1473 1473 1476 1467 1467 1469 1468 1466 1467 1471 1472 1472 1472 1471 1470 1469 1468 1467 1466 1466 1466 1466 1466 1465 1463 1462 1462 1462 1460 1459 1457 1456 1455 1453 1452 1452 1451
1497 1500 1499 1494 1484 1474 1475 1476 1476 1480 1476 1472 1471 1472 1472 1470 1470 1470 1470 1470 1469 1469 1469 1467 1466 1465 1465 1465 1464 1464 1463 1461 1460 1458 1459 1456 1455 1454 1452 1450 1449 1448 1448 1447
1493 1485 1487 1491 1477 1482 1481 1485 1485 1480 1476 1477 1476 1474 1473 1471 1470 1469 1469 1468 1467 1467 1466 1466 1465 1464 1465 1463 1462 1461 1460 1458 1457 1455 1454 1452 1451 1449 1448 1446 1445 1444 1444 1444
1485 1483 1481 1484 1488 1487 1486 1486 1484 1482 1480 1479 1477 1475 1472 1471 1469 1469 1468 1467 1466 1466 1465 1464 1463 1463 1462 1461 1459 1458 1456 1455 1453 1451 1449 1448 1446 1445 1443 1442 1441 1441 1441 1440
1502 1495 1495 1481 1488 1488 1488 1490 1488 1484 1482 1480 1479 1476 1473 1471 1469 1469 1468 1466 1465 1464 1463 1463 1462 1461 1460 1458 1455 1454 1452 1450 1448 1446 1445 1443 1442 1440 1439 1438 1437 1436 1437 1436
1512 1511 1507 1500 1504 1504 1498 1495 1491 1488 1485 1482 1480 1478 1475 1472 1470 1469 1469 1465 1464 1462 1461 1461 1459 1457 1457 1454 1451 1449 1446 1444 1443 1441 1440 1438 1437 1435 1434 1433 1433 1432 1432 1432
Wind_Speed
6 7 2 3 1 2 3 3 5 5 4 4 5 9 14 15 11 17 19 19 19 17 11 10 9 6 7 9 10 11 12 13 12 8 5 6 7 8 7 8 11 13 17 18
5 2 3 3 2 2 4 3 5 6 3 2 6 12 10 4 5 8 16 19 19 16 13 10 9 8 7 7 8 10 10 11 11 11 11 10 10 9 10 11 10 9 10 11
4 1 2 1 2 6 3 4 3 4 6 3 6 6 3 2 4 6 8 12 15 14 13 11 11 9 8 7 8 9 9 10 11 11 11 9 8 8 7 8 10 12 12 12
1 1 0 1 2 2 5 2 3 6 3 3 3 5 4 3 5 4 9 12 13 12 12 12 11 9 8 8 9 9 9 10 10 10 8 7 7 7 7 8 8 9 9 10
2 2 2 1 2 4 8 3 4 1 1 3 1 1 6 3 5 7 11 15 13 11 11 10 10 9 8 8 9 9 10 11 11 11 10 10 9 9 9 8 8 8 8 8
3 2 2 2 2 2 5 3 2 3 2 2 1 3 5 4 6 2 3 7 12 14 13 11 10 10 8 9 9 10 11 11 11 11 10 9 9 8 7 7 7 8 8 8
6 2 1 0 3 1 7 5 4 5 4 4 2 2 9 5 5 4 4 4 4 10 14 14 12 10 9 9 10 10 10 11 11 11 11 10 9 8 8 7 7 8 8 8
3 6 1 1 1 0 3 3 4 5 3 5 4 6 5 4 3 6 5 4 2 5 10 14 15 14 12 12 11 11 11 11 12 12 11 11 10 10 9 8 7 8 9 10
1 5 2 1 1 3 1 1 1 1 1 2 4 7 9 3 5 7 7 2 2 5 7 10 12 15 16 15 13 13 13 12 11 12 12 11 11 10 9 8 7 8 9 10
3 5 0 1 2 3 2 4 2 2 4 6 4 6 6 5 4 5 5 2 3 6 6 7 8 11 15 17 18 17 16 14 12 12 12 12 12 11 10 8 10 11 14 17
4 3 4 1 5 6 1 1 2 2 4 4 4 6 6 6 7 7 7 4 1 4 6 7 7 8 11 16 20 20 19 14 12 11 10 11 12 12 13 14 15 17 20 20
4 4 5 10 2 1 2 6 6 4 5 5 2 12 2 6 5 12 10 7 3 3 6 8 10 11 13 15 19 20 16 14 12 10 10 10 12 13 15 18 19 20 20 16
7 3 5 7 2 1 5 6 6 2 2 10 6 8 1 4 4 9 11 7 4 5 6 9 11 13 14 15 16 18 16 14 12 10 9 10 12 15 18 21 24 21 17 14
10 5 8 10 11 3 6 7 8 11 4 11 16 29 11 5 8 11 11 6 3 4 7 10 13 16 16 14 13 16 16 14 12 9 9 10 13 18 21 20 18 17 14 12
5 6 7 16 18 14 19 17 17 17 25 15 30 25 26 7 8 6 11 5 3 4 7 10 14 15 13 12 11 15 16 14 11 10 9 12 20 20 18 16 15 14 13 12
4 6 3 14 12 16 20 18 21 23 27 19 29 31 23 5 9 10 9 6 4 5 7 11 13 12 11 9 10 14 14 12 11 10 12 18 18 17 14 14 13 12 11 10
6 3 2 11 2 6 12 14 18 8 7 9 16 21 7 6 7 8 6 5 4 6 11 13 12 10 8 7 9 11 12 12 11 12 16 17 15 13 12 12 12 11 10 9
8 8 3 7 1 11 5 1 5 10 12 10 5 3 3 6 6 2 4 5 5 7 11 11 11 9 7 5 7 10 11 12 14 17 15 13 12 11 11 12 11 10 9 9
16 11 4 5 8 10 18 4 3 2 10 3 8 7 6 4 1 2 5 5 6 10 11 10 8 6 5 4 7 10 13 15 15 13 11 11 11 11 12 12 11 10 10 12
2 6 6 2 5 6 0 1 3 1 12 4 3 6 5 3 0 0 3 6 10 9 8 8 8 8 8 9 10 12 12 11 10 11 12 12 12 12 12 12 11 12 14 15
2 2 9 12 7 6 1 3 4 3 6 2 2 1 2 1 0 4 8 9 8 8 9 8 8 7 7 7 7 8 9 9 10 11 12 12 13 12 13 13 14 14 14 13
3 3 4 3 4 5 2 2 3 5 9 9 6 6 6 6 7 8 9 8 7 9 9 8 8 7 8 8 8 9 10 10 11 11 13 13 14 14 14 15 14 14 14 13
4 5 2 6 3 8 14 8 9 9 8 9 7 8 8 9 9 9 8 8 9 9 8 8 8 9 10 10 10 11 11 12 13 14 15 15 15 15 14 14 13 13 13 13
3 2 3 2 8 11 19 12 15 14 11 9 9 10 10 9 8 9 9 9 8 8 9 9 10 11 11 12 13 14 14 16 17 17 17 16 15 15 14 14 14 14 14 13
4 11 7 3 11 7 17 21 17 14 11 11 11 11 11 10 8 9 8 8 9 10 11 12 13 14 14 15 15 17 18 18 18 18 17 17 16 15 14 15 14 15 13 13
10 5 3 2 12 10 8 17 16 16 16 14 13 12 12 11 10 10 10 10 11 12 13 15 15 17 18 19 20 19 19 19 19 19 17 16 16 15 15 16 15 15 14 11
Wind_Direction
23 62 23 285 249 265 249 241 256 260 278 300 250 270 279 292 252 240 235 231 238 248 257 266 272 299 323 338 348 360 12 19 23 18 3 352 2 0 344 337 325 320 317 324
27 64 248 251 218 270 259 275 272 286 262 248 303 281 270 246 257 238 236 233 238 242 251 257 264 285 300 314 333 348 358 7 15 21 25 28 21 8 5 3 359 349 332 315
132 200 308 118 334 355 281 221 260 257 309 238 316 289 259 238 271 263 241 236 241 242 245 248 255 263 281 306 324 335 348 356 2 11 16 18 19 23 20 15 13 10 10 4
207 277 153 195 255 113 304 208 285 295 15 288 26 285 282 242 267 250 244 234 238 240 243 244 247 260 280 301 314 327 339 344 347 357 3 6 2 359 7 13 3 350 343 341
276 315 354 334 233 160 242 345 280 280 179 359 285 63 269 6 264 250 239 238 235 230 236 244 249 255 275 292 304 315 322 329 334 339 343 346 350 354 360 355 348 339 336 334
264 298 193 252 296 204 316 333 76 59 92 355 346 115 276 206 211 195 231 238 229 225 235 242 251 259 274 288 296 303 310 314 319 322 325 328 334 340 342 340 340 343 346 347
334 247 298 260 327 63 21 18 342 352 4 230 294 278 249 243 234 191 223 232 230 226 238 245 248 259 262 265 272 285 296 300 304 311 315 319 319 319 320 324 332 340 339 341
30 331 174 157 145 322 32 109 143 289 283 284 312 239 250 210 265 226 238 254 275 256 259 258 257 258 261 265 273 283 287 292 296 299 298 296 297 300 301 310 322 332 336 341
34 277 283 62 97 99 141 210 151 256 261 346 247 284 291 235 259 232 242 242 7 317 301 287 274 272 275 277 275 269 272 278 284 288 294 297 299 298 300 304 320 330 333 331
174 303 224 3 87 40 161 164 10 35 309 293 272 275 246 291 236 212 229 265 319 332 331 314 293 281 275 271 265 262 263 266 276 278 282 283 282 281 283 292 308 311 311 309
140 138 284 313 195 183 116 247 86 163 176 227 290 257 211 228 213 198 181 182 290 328 327 322 324 315 294 271 263 260 258 260 262 268 272 275 280 281 282 290 299 303 308 302
196 154 260 237 167 132 178 205 172 169 227 233 207 268 185 246 234 173 170 168 210 291 315 323 328 321 309 286 262 255 253 256 259 264 269 281 285 286 291 296 299 302 297 289
184 211 309 319 33 38 208 204 205 233 324 233 243 263 61 89 160 180 176 191 224 286 310 326 325 324 317 304 270 253 249 251 253 261 272 282 290 297 299 297 299 298 294 289
168 193 199 245 254 172 216 208 203 210 222 261 244 270 234 204 224 213 196 207 241 314 321 320 327 331 325 308 268 247 244 244 247 253 267 286 302 303 301 297 295 296 298 289
177 237 228 245 258 264 264 257 248 230 244 242 262 265 270 247 242 212 187 203 245 289 309 333 334 326 317 299 255 235 234 239 247 260 268 296 306 303 299 292 290 290 291 291
192 254 224 277 234 241 266 257 252 248 255 252 254 268 278 127 141 149 182 205 250 292 322 328 326 326 319 294 250 236 238 245 251 262 284 301 299 296 294 292 290 287 283 285
165 218 214 271 98 313 273 241 232 224 226 217 238 252 198 169 156 176 203 253 274 299 310 320 325 328 321 293 258 243 242 249 257 271 289 294 294 291 290 288 287 287 288 292
209 211 205 271 101 266 267 241 218 221 250 217 265 226 151 147 162 212 246 252 269 302 319 323 326 328 321 285 246 241 246 257 272 286 288 288 287 288 288 286 287 289 297 310
224 246 247 251 234 296 308 0 22 158 292 261 235 139 140 129 35 287 246 250 283 312 315 313 319 318 307 279 259 256 262 273 279 280 277 282 287 288 290 288 291 298 309 307
104 238 238 209 247 245 54 33 14 86 273 16 104 140 167 162 19 2 228 279 303 303 311 311 311 305 296 284 275 272 272 273 275 278 281 285 288 290 291 295 305 302 294 293
188 192 227 247 269 265 5 57 24 256 324 219 331 323 129 75 21 296 296 297 301 307 313 312 312 306 296 286 283 279 276 275 278 282 285 287 288 292 294 291 291 291 291 292
217 222 220 239 255 280 38 359 209 351 345 13 34 8 348 336 318 317 305 297 300 311 306 303 303 297 293 291 287 282 280 282 284 286 289 293 293 292 287 288 288 287 290 290
258 206 236 216 292 50 40 52 13 10 41 17 14 351 338 339 335 323 304 299 300 298 293 296 298 299 296 292 290 287 288 290 293 292 292 292 292 289 285 284 285 284 283 284
255 351 228 222 38 11 35 24 25 23 27 4 353 343 338 336 331 325 314 309 308 303 304 305 302 296 292 290 290 292 293 294 292 292 292 291 290 286 283 282 284 282 282 280
357 327 346 313 12 21 29 13 2 358 1 355 347 349 352 344 336 323 317 313 309 307 305 303 300 297 295 294 293 293 293 293 291 289 290 290 288 282 282 282 281 279 276 272
1 358 355 324 358 313 330 350 357 354 356 357 355 353 349 344 335 326 314 312 310 305 300 297 297 297 297 295 295 295 293 291 288 289 289 287 282 282 283 283 278 273 273 267